User: anonymous   Login
Location: Chuathbaluk
(61.5726°N, 159.2454°W)
Time: 01:02:46
(UTC+00:00)
Language:

deb Explorer IX - Orbit

View from above orbital plane
View from above orbital plane
View from above satellite
View from above satellite

Ground track
Ground track

The orbit data is extracted from the following two-line orbital elements,

1 00085U 61004C   22275.43896706  .00007043  00000-0  13428-2 0  9999
2 00085  38.7687  54.6426 0371427 338.9373  19.6424 14.28110827 50376
Epoch (UTC): 02 October 2022 10:32:06
Eccentricity: 0.0371427
inclination: 38.7687°
perigee height: 531 km
apogee height: 1064 km
right ascension of ascending node: 54.6426°
argument of perigee: 338.9373°
revolutions per day: 14.28110827
mean anomaly at epoch: 19.6424°
orbit number at epoch: 5037

The dashed part of the orbit path shows where the satellite is in the earth's shadow,  

DLR